Eviapetrol II — SY6858 — position and weather

sailwx.info

Track history (hours):
 
Tides and Currents Weather Stations Pressure Air Temp Water Temp Dewpoint Dewpoint Depression Visibility Wind Speed Wind Dir Waves Ship Positions

Eviapetrol II

Last reported at 2014-Aug-28 14:23 UTC. Time now 2014-Aug-31 10:34 UTC.
Position N 38°02' E 026°20'.

Length 78 m; draft 4.7 m.

Type: Tanker. MMSI: 240493000.

Date/timePositionNaut miles runAvg speedWind from/ knotsBaromVisibWave heightAir tempDewpointWater temp
2014-Aug-28 14:23N 38°02' E 026°20'8 9.6
2014-Aug-28 13:32N 37°55' E 026°25'10 9.7
2014-Aug-28 12:32N 37°46' E 026°31'18 9.2
2014-Aug-28 10:32N 37°30' E 026°42'12 9.3
2014-Aug-28 09:15N 37°20' E 026°50'18 9.6
2014-Aug-28 07:23N 37°05' E 027°02'8 9.3
2014-Aug-28 06:31N 36°59' E 027°09'25 7.9
2014-Aug-28 03:16N 36°38' E 027°27'9 9.3
2014-Aug-28 02:20N 36°35' E 027°37'4 0.2
2014-Aug-27 06:28N 36°31' E 027°36'31 9.2
2014-Aug-27 03:09N 36°32' E 026°58'6 9.4
2014-Aug-27 02:33N 36°34' E 026°51'10 9.6
2014-Aug-27 01:33N 36°37' E 026°40'9 9.4
2014-Aug-27 00:33N 36°40' E 026°29'9 8.9
2014-Aug-26 23:33N 36°41' E 026°18'9 8.8
2014-Aug-26 22:33N 36°42' E 026°07'9 9.5
2014-Aug-26 21:33N 36°43' E 025°55'9 9.2
2014-Aug-26 20:33N 36°44' E 025°44'9 9.0
2014-Aug-26 19:33N 36°46' E 025°33'9 9.3
2014-Aug-26 18:33N 36°48' E 025°21'9 8.9
2014-Aug-26 17:33N 36°52' E 025°11'9 8.9
2014-Aug-26 16:33N 36°55' E 025°01'9 9.0
2014-Aug-26 15:33N 36°60' E 024°51'10 9.6
2014-Aug-26 14:33N 37°06' E 024°42'10 9.6
2014-Aug-26 13:33N 37°12' E 024°33'9 8.6
2014-Aug-26 12:33N 37°16' E 024°24'10 9.0
2014-Aug-26 11:25N 37°21' E 024°12'28 9.6
2014-Aug-26 08:33N 37°38' E 023°45'10 9.9
2014-Aug-26 07:33N 37°46' E 023°39'1010.0
2014-Aug-26 06:33N 37°56' E 023°36'6 0.8
2014-Aug-25 23:15N 38°02' E 023°33'2 0.9
2014-Aug-25 20:31N 38°02' E 023°36'0 0.0
2014-Aug-25 15:28N 38°02' E 023°36'0 0.0
2014-Aug-25 13:12N 38°02' E 023°36'0 0.0
2014-Aug-25 12:33N 38°02' E 023°36'0 0.0
2014-Aug-25 11:27N 38°02' E 023°36'3 0.7
2014-Aug-25 07:28N 38°01' E 023°32'7 8.1
2014-Aug-25 06:33N 37°55' E 023°36'9 9.3
2014-Aug-25 05:33N 37°47' E 023°42'9 9.2
2014-Aug-25 04:33N 37°40' E 023°49'30 9.5
2014-Aug-25 01:23N 37°30' E 024°25'1210.0
2014-Aug-25 00:11N 37°26' E 024°40'610.3
2014-Aug-24 23:33N 37°23' E 024°47'1010.4
2014-Aug-24 22:33N 37°20' E 024°59'1110.9
2014-Aug-24 21:33N 37°17' E 025°13'1110.6
2014-Aug-24 20:33N 37°14' E 025°25'1010.2
2014-Aug-24 19:33N 37°12' E 025°38'9 9.2
2014-Aug-24 18:33N 37°10' E 025°49'10 9.9
2014-Aug-24 17:32N 37°08' E 026°01'10 9.8
2014-Aug-24 16:33N 37°05' E 026°13'10 9.7
2014-Aug-24 15:32N 37°03' E 026°25'9 9.6
2014-Aug-24 14:33N 36°60' E 026°36'10 9.8
2014-Aug-24 13:33N 36°56' E 026°47'13 9.1
2014-Aug-24 12:07N 36°50' E 027°02'1 0.2
2014-Aug-24 09:08N 36°50' E 027°03'0 0.0
2014-Aug-24 07:32N 36°50' E 027°03'0 0.0
2014-Aug-24 06:30N 36°50' E 027°03'0 0.0
2014-Aug-24 05:32N 36°50' E 027°03'0 0.0
2014-Aug-24 01:27N 36°50' E 027°03'0 0.0
2014-Aug-24 00:32N 36°50' E 027°03'54 2.6
2014-Aug-23 03:33N 37°08' E 025°59'1110.5
2014-Aug-23 02:33N 37°10' E 025°46'1110.5
2014-Aug-23 01:33N 37°13' E 025°33'1010.1
2014-Aug-23 00:33N 37°15' E 025°21'10 9.9
2014-Aug-22 23:33N 37°17' E 025°09'10 9.6
2014-Aug-22 22:33N 37°20' E 024°57'10 9.7
2014-Aug-22 21:33N 37°23' E 024°46'10 9.7
2014-Aug-22 20:33N 37°27' E 024°35'9 8.8
2014-Aug-22 19:31N 37°31' E 024°24'9 8.8
2014-Aug-22 18:31N 37°31' E 024°13'19 9.7
2014-Aug-22 16:34N 37°38' E 023°51'9 9.0
2014-Aug-22 15:33N 37°42' E 023°41'10 9.6
2014-Aug-22 14:33N 37°51' E 023°36'8 8.4
2014-Aug-22 13:33N 37°59' E 023°33'4 0.4
2014-Aug-22 04:09N 38°02' E 023°36'0 0.0
2014-Aug-22 03:33N 38°02' E 023°36'0 0.0
2014-Aug-21 23:20N 38°02' E 023°36'0 0.0
2014-Aug-21 22:33N 38°02' E 023°36'4 2.9
2014-Aug-21 21:20N 38°01' E 023°31'6 7.8
2014-Aug-21 20:31N 37°57' E 023°25'1010.0
2014-Aug-21 19:33N 37°55' E 023°13'  
2014-Aug-19 09:33N 37°57' E 023°20'10 8.6
2014-Aug-19 08:26N 38°01' E 023°31'4 2.0
2014-Aug-19 06:33N 38°02' E 023°36'0 0.0
2014-Aug-19 05:29N 38°02' E 023°36'0 0.0
2014-Aug-19 04:33N 38°02' E 023°36'0 0.0
2014-Aug-19 03:27N 38°02' E 023°36'0 0.0
2014-Aug-19 02:14N 38°02' E 023°36'0 0.0
2014-Aug-19 01:27N 38°02' E 023°36'3 0.7
2014-Aug-18 21:32N 38°02' E 023°32'  
Track history (hours):
 
Tides and Currents Weather Stations Pressure Air Temp Water Temp Dewpoint Dewpoint Depression Visibility Wind Speed Wind Dir Waves Ship Positions

Eviapetrol II

Last reported at 2014-Aug-28 14:23 UTC. Time now 2014-Aug-31 10:34 UTC.
Position N 38°02' E 026°20'.

Length 78 m; draft 4.7 m.

Type: Tanker. MMSI: 240493000.

Date/timePositionNaut miles runAvg speedWind from/ knotsBaromVisibWave heightAir tempDewpointWater temp
2014-Aug-28 14:23N 38°02' E 026°20'8 9.6
2014-Aug-28 13:32N 37°55' E 026°25'10 9.7
2014-Aug-28 12:32N 37°46' E 026°31'18 9.2
2014-Aug-28 10:32N 37°30' E 026°42'12 9.3
2014-Aug-28 09:15N 37°20' E 026°50'18 9.6
2014-Aug-28 07:23N 37°05' E 027°02'8 9.3
2014-Aug-28 06:31N 36°59' E 027°09'25 7.9
2014-Aug-28 03:16N 36°38' E 027°27'9 9.3
2014-Aug-28 02:20N 36°35' E 027°37'4 0.2
2014-Aug-27 06:28N 36°31' E 027°36'31 9.2
2014-Aug-27 03:09N 36°32' E 026°58'6 9.4
2014-Aug-27 02:33N 36°34' E 026°51'10 9.6
2014-Aug-27 01:33N 36°37' E 026°40'9 9.4
2014-Aug-27 00:33N 36°40' E 026°29'9 8.9
2014-Aug-26 23:33N 36°41' E 026°18'9 8.8
2014-Aug-26 22:33N 36°42' E 026°07'9 9.5
2014-Aug-26 21:33N 36°43' E 025°55'9 9.2
2014-Aug-26 20:33N 36°44' E 025°44'9 9.0
2014-Aug-26 19:33N 36°46' E 025°33'9 9.3
2014-Aug-26 18:33N 36°48' E 025°21'9 8.9
2014-Aug-26 17:33N 36°52' E 025°11'9 8.9
2014-Aug-26 16:33N 36°55' E 025°01'9 9.0
2014-Aug-26 15:33N 36°60' E 024°51'10 9.6
2014-Aug-26 14:33N 37°06' E 024°42'10 9.6
2014-Aug-26 13:33N 37°12' E 024°33'9 8.6
2014-Aug-26 12:33N 37°16' E 024°24'10 9.0
2014-Aug-26 11:25N 37°21' E 024°12'28 9.6
2014-Aug-26 08:33N 37°38' E 023°45'10 9.9
2014-Aug-26 07:33N 37°46' E 023°39'1010.0
2014-Aug-26 06:33N 37°56' E 023°36'6 0.8
2014-Aug-25 23:15N 38°02' E 023°33'2 0.9
2014-Aug-25 20:31N 38°02' E 023°36'0 0.0
2014-Aug-25 15:28N 38°02' E 023°36'0 0.0
2014-Aug-25 13:12N 38°02' E 023°36'0 0.0
2014-Aug-25 12:33N 38°02' E 023°36'0 0.0
2014-Aug-25 11:27N 38°02' E 023°36'3 0.7
2014-Aug-25 07:28N 38°01' E 023°32'7 8.1
2014-Aug-25 06:33N 37°55' E 023°36'9 9.3
2014-Aug-25 05:33N 37°47' E 023°42'9 9.2
2014-Aug-25 04:33N 37°40' E 023°49'30 9.5
2014-Aug-25 01:23N 37°30' E 024°25'1210.0
2014-Aug-25 00:11N 37°26' E 024°40'610.3
2014-Aug-24 23:33N 37°23' E 024°47'1010.4
2014-Aug-24 22:33N 37°20' E 024°59'1110.9
2014-Aug-24 21:33N 37°17' E 025°13'1110.6
2014-Aug-24 20:33N 37°14' E 025°25'1010.2
2014-Aug-24 19:33N 37°12' E 025°38'9 9.2
2014-Aug-24 18:33N 37°10' E 025°49'10 9.9
2014-Aug-24 17:32N 37°08' E 026°01'10 9.8
2014-Aug-24 16:33N 37°05' E 026°13'10 9.7
2014-Aug-24 15:32N 37°03' E 026°25'9 9.6
2014-Aug-24 14:33N 36°60' E 026°36'10 9.8
2014-Aug-24 13:33N 36°56' E 026°47'13 9.1
2014-Aug-24 12:07N 36°50' E 027°02'1 0.2
2014-Aug-24 09:08N 36°50' E 027°03'0 0.0
2014-Aug-24 07:32N 36°50' E 027°03'0 0.0
2014-Aug-24 06:30N 36°50' E 027°03'0 0.0
2014-Aug-24 05:32N 36°50' E 027°03'0 0.0
2014-Aug-24 01:27N 36°50' E 027°03'0 0.0
2014-Aug-24 00:32N 36°50' E 027°03'54 2.6
2014-Aug-23 03:33N 37°08' E 025°59'1110.5
2014-Aug-23 02:33N 37°10' E 025°46'1110.5
2014-Aug-23 01:33N 37°13' E 025°33'1010.1
2014-Aug-23 00:33N 37°15' E 025°21'10 9.9
2014-Aug-22 23:33N 37°17' E 025°09'10 9.6
2014-Aug-22 22:33N 37°20' E 024°57'10 9.7
2014-Aug-22 21:33N 37°23' E 024°46'10 9.7
2014-Aug-22 20:33N 37°27' E 024°35'9 8.8
2014-Aug-22 19:31N 37°31' E 024°24'9 8.8
2014-Aug-22 18:31N 37°31' E 024°13'19 9.7
2014-Aug-22 16:34N 37°38' E 023°51'9 9.0
2014-Aug-22 15:33N 37°42' E 023°41'10 9.6
2014-Aug-22 14:33N 37°51' E 023°36'8 8.4
2014-Aug-22 13:33N 37°59' E 023°33'4 0.4
2014-Aug-22 04:09N 38°02' E 023°36'0 0.0
2014-Aug-22 03:33N 38°02' E 023°36'0 0.0
2014-Aug-21 23:20N 38°02' E 023°36'0 0.0
2014-Aug-21 22:33N 38°02' E 023°36'4 2.9
2014-Aug-21 21:20N 38°01' E 023°31'6 7.8
2014-Aug-21 20:31N 37°57' E 023°25'1010.0
2014-Aug-21 19:33N 37°55' E 023°13'  
2014-Aug-19 09:33N 37°57' E 023°20'10 8.6
2014-Aug-19 08:26N 38°01' E 023°31'4 2.0
2014-Aug-19 06:33N 38°02' E 023°36'0 0.0
2014-Aug-19 05:29N 38°02' E 023°36'0 0.0
2014-Aug-19 04:33N 38°02' E 023°36'0 0.0
2014-Aug-19 03:27N 38°02' E 023°36'0 0.0
2014-Aug-19 02:14N 38°02' E 023°36'0 0.0
2014-Aug-19 01:27N 38°02' E 023°36'3 0.7
2014-Aug-18 21:32N 38°02' E 023°32'  

Dump ship's entire track history